STARLINK-35224 (65811 NORAD) Tracking and Keplerian Element Data

This shows tracking and keplerian element data for the satellite.

Feedback or suggestion? Click here.




ElementValue
Catalog65811
NameSTARLINK-35224
Epoch Orbit1299
Epoch Day354.08304467
Epoch Year2025
RAAN214.5261
Inclination97.6038
Eccentricity0.0003072
Argument of Perigee73.9254
Mean Anonmoly286.2311
Mean Motion15.05650343
Decay Rate2.205E-05
L11 65811U 25218W 25354.08304467 .00002205 00000+0 15697-3 0 9999
L22 65811 97.6038 214.5261 0003072 73.9254 286.2311 15.05650343 12995



Live tracking and technical data element details for STARLINK-35224 (NORAD 65811). STARLINK-35224 can be tracked NOW for your location showing map with azimuth and elevation plus other details from your city location.







IsCatalogInMostPopularTable: catalog: 65811, numindb: 3
Update: records affected: 1



GetName: 65811 STARLINK-35224

Hit Count: updated at: Tue, 17 Feb 2026 12:49:06 GMT